星链-31271 (STARLINK-31271 )

导读 | 星芒AI

STARLINK-31271 是 SpaceX Starlink 项目中的一颗低轨通信卫星,属于第二代 Starlink 卫星(Gen2)。它于2024年发射,旨在为全球用户提供高速互联网服务。该卫星采用先进推进系统,具备更高的数据传输能力和更好的覆盖性能。Starlink 卫星群计划最终部署数万颗卫星,以构建全球宽带网络,尤其服务于偏远地区。STARLINK-31271 的运行有助于提升 Starlink 网络的稳定性和响应速度。

基本信息
目录编号:
58827
目录名称:
STARLINK-31271
国际标识:
2024-017B
轨道中心:
EARTH
卫星名称:
星链-31271
卫星全名:
星链-31271 (STARLINK-31271 )
卫星状态:
在轨 (已飞行649 天)
发射日期:
2024-01-24 UTC
国别 :
美国 (US)
星等 :
--
轨道信息
数据来源 国际轨道数据
星历时间: 2025-11-02T09:39:43+0800
1天前
查看轨道信息
半长轴: 6853.415km
偏心率: 0.0001297
轨道倾角: 53.157°
近地点辐角 90.694°
升交点赤经 77.342°
平近点角 269.421°
近地点: 474.391km
远地点: 476.169km
周期: 94.107分钟
每日圈数: 15.30179
详细信息
固有亮度:
5
最大亮度:
0.3
卫星平台:
Starlink v2.0 mini
覆盖范围:
全球
运营商:
太空探索技术公司
运营商所在国:
美国
制造商(研发单位):
太空探索技术公司
制造商所在国:
美国
使用方式:
暂无
卫星简介
星链(Starlink)计划是由太空探索技术公司(SpaceX)提出的一个巨型低轨卫星互联网星座项目,计划在2019年至2024年间在太空搭建由约1.2万颗卫星组成的“星链”网络,其中1584颗将部署在地球上空550千米处的近地轨道,并从2020年开始工作。该卫星仍在工作。
2D轨道图
3D轨道图
轨道高度分析图
轨道倾角分析图
轨道综合分析图
查看轨道综合分析图